�������C�����ː����j�^�v���󋵏��
Date,Time,Cs137(Bq/L),Cs134(Bq/L),�S��(Bq/L)
2017/02/28,00:00,1.1,0.11,ND
2017/02/28,00:10,1.1,0.12,ND
2017/02/28,00:20,1.1,0.12,ND
2017/02/28,00:30,1.1,0.12,ND
2017/02/28,00:40,1.1,0.13,ND
2017/02/28,00:50,1.2,0.13,ND
2017/02/28,01:00,1.2,0.12,ND
2017/02/28,01:10,1.2,0.12,ND
2017/02/28,01:20,1.2,0.12,ND
2017/02/28,01:30,1.2,0.11,ND
2017/02/28,01:40,1.2,0.12,ND
2017/02/28,01:50,1.2,0.12,ND
2017/02/28,02:00,1.2,0.12,ND
2017/02/28,02:10,1.2,0.12,ND
2017/02/28,02:20,1.2,0.13,ND
2017/02/28,02:30,1.2,0.13,ND
2017/02/28,02:40,1.2,0.13,ND
2017/02/28,02:50,1.2,0.13,9.3
2017/02/28,03:00,1.2,0.13,ND
2017/02/28,03:10,1.2,0.13,ND
2017/02/28,03:20,1.2,0.11,ND
2017/02/28,03:30,1.2,0.11,ND
2017/02/28,03:40,1.2,0.12,ND
2017/02/28,03:50,1.2,0.11,ND
2017/02/28,04:00,1.2,0.11,ND
2017/02/28,04:10,1.2,0.12,ND
2017/02/28,04:20,1.2,0.13,ND
2017/02/28,04:30,1.2,0.12,ND
2017/02/28,04:40,1.2,0.12,ND
2017/02/28,04:50,1.2,0.13,ND
2017/02/28,05:00,1.2,0.12,ND
2017/02/28,05:10,1.2,0.13,9.0
2017/02/28,05:20,1.2,0.13,11
2017/02/28,05:30,1.2,0.14,10
2017/02/28,05:40,1.1,0.15,9.3
2017/02/28,05:50,1.2,0.16,ND
2017/02/28,06:00,1.2,0.15,ND
2017/02/28,06:10,1.2,0.14,ND
2017/02/28,06:20,1.1,0.14,ND
2017/02/28,06:30,1.2,0.13,ND
2017/02/28,06:40,1.2,0.13,ND
2017/02/28,06:50,1.2,0.12,ND
2017/02/28,07:00,1.2,0.12,ND
2017/02/28,07:10,1.3,0.12,ND
2017/02/28,07:20,1.3,0.12,ND
2017/02/28,07:30,1.3,0.13,ND
2017/02/28,07:40,1.3,0.14,ND
2017/02/28,07:50,1.3,0.14,ND
2017/02/28,08:00,1.4,0.14,ND
2017/02/28,08:10,1.4,0.15,ND
2017/02/28,08:20,1.4,0.14,ND
2017/02/28,08:30,1.4,0.14,ND
2017/02/28,08:40,1.4,0.14,ND
2017/02/28,08:50,1.4,0.15,ND
2017/02/28,09:00,1.4,0.15,ND
2017/02/28,09:10,1.4,0.15,ND
2017/02/28,09:20,1.4,0.16,ND
2017/02/28,09:30,1.4,0.17,ND
2017/02/28,09:40,1.4,0.17,ND
2017/02/28,09:50,1.4,0.17,ND
2017/02/28,10:00,1.4,0.18,ND
2017/02/28,10:10,1.4,0.17,ND
2017/02/28,10:20,1.5,0.16,ND
2017/02/28,10:30,1.5,0.16,ND
2017/02/28,10:40,1.5,0.16,ND
2017/02/28,10:50,1.5,0.15,ND
2017/02/28,11:00,1.5,0.14,ND
2017/02/28,11:10,1.4,0.16,8.8
2017/02/28,11:20,1.4,0.15,ND
2017/02/28,11:30,1.4,0.15,9.9
2017/02/28,11:40,1.4,0.15,10
2017/02/28,11:50,1.3,0.14,11
2017/02/28,12:00,1.3,0.15,12
2017/02/28,12:10,1.3,0.13,11
2017/02/28,12:20,1.3,0.14,14
2017/02/28,12:30,1.2,0.14,14
2017/02/28,12:40,1.2,0.14,14
2017/02/28,12:50,1.2,0.14,11
2017/02/28,13:00,1.2,0.14,10
2017/02/28,13:10,1.2,0.14,ND
2017/02/28,13:20,1.2,0.13,9.0
2017/02/28,13:30,1.1,0.13,9.3
2017/02/28,13:40,1.1,0.14,ND
2017/02/28,13:50,1.1,0.14,10
2017/02/28,14:00,1.1,0.13,9.5
2017/02/28,14:10,1.1,0.13,10
2017/02/28,14:20,1.1,0.14,8.9
2017/02/28,14:30,1.1,0.13,ND
2017/02/28,14:40,1.1,0.12,10
2017/02/28,14:50,1.1,0.12,ND
2017/02/28,15:00,1.1,0.12,ND
2017/02/28,15:10,1.1,0.13,ND
2017/02/28,15:20,1.1,0.12,ND
2017/02/28,15:30,1.1,0.13,ND
2017/02/28,15:40,1.1,0.13,ND
2017/02/28,15:50,1.1,0.13,ND
2017/02/28,16:00,1.1,0.13,ND
2017/02/28,16:10,1.1,0.13,ND
2017/02/28,16:20,1.1,0.13,ND
2017/02/28,16:30,1.1,0.13,ND
2017/02/28,16:40,1.1,0.12,ND
2017/02/28,16:50,1.1,0.12,ND
2017/02/28,17:00,1.2,0.11,ND
2017/02/28,17:10,1.1,0.12,ND
2017/02/28,17:20,1.1,0.12,ND
2017/02/28,17:30,1.2,0.12,ND
2017/02/28,17:40,1.2,0.12,ND
2017/02/28,17:50,1.2,0.12,ND
2017/02/28,18:00,1.1,0.13,ND
2017/02/28,18:10,1.1,0.13,ND
2017/02/28,18:20,1.1,0.13,ND
2017/02/28,18:30,1.1,0.13,ND
2017/02/28,18:40,1.1,0.13,ND
2017/02/28,18:50,1.1,0.13,ND
2017/02/28,19:00,1.1,0.12,ND
2017/02/28,19:10,1.1,0.13,ND
2017/02/28,19:20,1.1,0.13,ND
2017/02/28,19:30,1.2,0.13,ND
2017/02/28,19:40,1.1,0.14,ND
2017/02/28,19:50,1.2,0.14,ND
2017/02/28,20:00,1.2,0.14,ND
2017/02/28,20:10,1.2,0.14,ND
2017/02/28,20:20,1.2,0.13,ND
2017/02/28,20:30,1.2,0.14,ND
2017/02/28,20:40,1.2,0.14,ND
2017/02/28,20:50,1.2,0.14,9.0
2017/02/28,21:00,1.2,0.15,9.5
2017/02/28,21:10,1.2,0.15,9.5
2017/02/28,21:20,1.2,0.14,12
2017/02/28,21:30,1.2,0.14,11
2017/02/28,21:40,1.2,0.15,9.0
2017/02/28,21:50,1.2,0.16,ND
2017/02/28,22:00,1.2,0.15,ND
2017/02/28,22:10,1.2,0.15,ND
2017/02/28,22:20,1.2,0.15,ND
2017/02/28,22:30,1.2,0.15,ND
2017/02/28,22:40,1.2,0.14,ND
2017/02/28,22:50,1.2,0.13,ND
2017/02/28,23:00,1.2,0.14,ND
2017/02/28,23:10,1.2,0.14,ND
2017/02/28,23:20,1.2,0.14,ND
2017/02/28,23:30,1.2,0.14,ND
2017/02/28,23:40,1.2,0.13,ND
2017/02/28,23:50,1.2,0.13,ND
